Location: Asheville, NC
(35.6000°N, 82.5500°W)
Time: 07:29:17
(UTC-04:00)

HO-68 - Pass Details

Date: 09 January 2018
Orbit: 1192 x 1205 km, 100.1° (Epoch: 19 June)

Event Time Altitude Azimuth Distance (km) Brightness Sun altitude
Rises 06:46:02 0° 24° (NNE) 4,095 ? -11.0°
Reaches altitude 10° 06:48:55 10° 33° (NNE) 3,127 ? -10.4°
Maximum altitude 06:55:24 36° 98° (E) 1,790 ? -9.2°
Drops below altitude 10° 07:01:49 10° 163° (SSE) 3,116 ? -8.0°
Sets 07:04:40 0° 171° (S) 4,077 ? -7.4°
